Date,TemperatureHighF,TemperatureAvgF,TemperatureLowF,DewpointHighF,DewpointAvgF,DewpointLowF,HumidityHigh,HumidityAvg,HumidityLow,PressureMaxIn,PressureMinIn,WindSpeedMaxMPH,WindSpeedAvgMPH,GustSpeedMaxMPH,PrecipitationSumIn
2013-1-1,50,47,43,49,39,24,96,75,41,29.78,29.60,0,-999,0,0.00
2013-1-2,50,46,41,48,41,35,96,85,68,29.84,29.57,0,-999,0,0.00
2013-1-3,47,41,31,37,34,28,86,77,60,29.93,29.81,0,-999,0,0.00
2013-1-4,52,38,26,31,24,18,93,61,35,29.99,29.81,0,-999,0,0.00
2013-1-5,51,38,27,29,23,18,72,55,37,30.07,29.93,0,-999,0,0.00
2013-1-6,51,43,35,36,32,25,86,66,50,29.93,29.75,0,-999,0,0.00
2013-1-7,55,39,29,36,29,26,93,69,39,30.07,29.84,0,-999,0,0.00
2013-1-8,56,42,30,38,33,26,88,71,46,30.10,29.99,0,-999,0,0.00
2013-1-9,68,50,36,48,41,33,93,73,44,30.10,30.01,0,-999,0,0.00
2013-1-10,68,53,46,49,42,32,93,69,39,30.19,30.07,0,-999,0,0.00
2013-1-11,51,48,42,49,41,29,98,80,45,30.10,29.81,0,-999,0,0.00
2013-1-12,71,57,49,63,54,48,98,91,70,29.84,29.78,0,-999,0,0.00
2013-1-13,75,63,53,64,56,52,98,80,51,29.84,29.75,0,-999,0,0.00
2013-1-14,69,64,60,61,58,54,91,81,72,29.84,29.75,0,-999,0,0.00
2013-1-15,66,48,46,60,46,44,98,91,77,29.90,29.72,0,-999,0,0.00
2013-1-16,50,47,44,50,46,43,98,98,97,29.75,29.63,0,-999,0,0.00
2013-1-17,51,47,33,50,46,32,98,96,87,29.81,29.57,0,-999,0,0.00
2013-1-18,49,37,29,35,29,23,98,75,40,30.19,29.81,0,-999,0,0.00
2013-1-19,54,39,26,32,27,22,90,65,33,30.16,29.81,0,-999,0,0.00
2013-1-20,65,48,37,36,31,27,70,53,32,29.81,29.66,0,-999,0,0.00
2013-1-21,60,45,30,36,26,18,87,53,28,29.78,29.54,0,-999,0,0.00
2013-1-22,42,35,26,18,9,3,41,34,26,29.93,29.63,0,-999,0,0.00
2013-1-23,41,30,20,14,9,2,57,40,30,30.04,29.72,0,-999,0,0.00
2013-1-24,40,33,25,21,12,3,61,43,30,30.16,29.60,0,-999,0,0.00
2013-1-25,28,25,22,24,12,2,88,58,37,30.16,29.78,0,-999,0,0.00
2013-1-26,40,32,27,32,26,22,89,79,57,30.04,29.72,0,-999,0,0.00
2013-1-27,43,33,25,28,24,20,90,71,45,30.25,30.04,0,-999,0,0.00
2013-1-28,51,43,34,44,34,25,87,69,53,30.13,29.87,0,-999,0,0.00
2013-1-29,72,58,47,56,50,44,95,75,48,29.90,29.75,0,-999,0,0.00
2013-1-30,72,67,61,63,60,55,91,78,64,29.75,29.13,0,-999,0,0.00
2013-1-31,64,48,35,60,29,18,87,50,30,29.69,29.16,0,-999,0,0.00
2013-2-1,41,36,26,24,13,5,53,39,29,30.04,29.54,0,-999,0,0.00
2013-2-2,45,34,20,33,12,5,69,39,29,30.07,29.69,0,-999,0,0.00
2013-2-3,51,43,33,33,27,19,78,56,37,29.69,29.54,0,-999,0,0.00
2013-2-4,49,39,27,25,21,17,74,49,33,29.81,29.66,0,-999,0,0.00
2013-2-5,62,48,39,33,28,23,69,49,33,29.69,29.54,0,-999,0,0.00
2013-2-6,65,46,32,38,28,22,88,54,25,29.93,29.63,0,-999,0,0.00
2013-2-7,49,43,37,42,34,28,93,71,52,29.99,29.63,0,-999,0,0.00
2013-2-8,56,46,40,44,39,24,96,77,48,29.72,29.48,0,-999,0,0.00
2013-2-9,54,41,30,26,22,18,76,48,28,30.01,29.69,0,-999,0,0.00
2013-2-10,56,40,26,37,22,18,77,51,28,30.16,29.87,0,-999,0,0.00
2013-2-11,63,57,46,59,53,37,98,88,73,29.87,29.60,0,-999,0,0.00
2013-2-12,64,54,46,53,36,27,92,55,27,29.75,29.57,0,-999,0,0.00
2013-2-13,49,46,44,46,42,34,95,85,58,29.63,29.31,0,-999,0,0.00
2013-2-14,54,42,32,36,31,27,94,66,39,29.72,29.51,0,-999,0,0.00
2013-2-15,64,45,30,41,31,27,94,62,31,29.78,29.60,0,-999,0,0.00
2013-2-16,45,37,32,34,30,24,90,76,54,29.66,29.51,0,-999,0,0.00
2013-2-17,38,32,24,24,13,8,74,47,31,29.93,29.57,0,-999,0,0.00
2013-2-18,52,36,19,22,16,10,76,47,27,30.07,29.90,0,-999,0,0.00
2013-2-19,52,44,35,50,36,21,95,75,48,29.90,29.51,0,-999,0,0.00
2013-2-20,54,41,29,36,22,16,94,51,27,29.81,29.63,0,-999,0,0.00
2013-2-21,56,42,26,24,19,14,66,41,26,29.90,29.75,0,-999,0,0.00
2013-2-22,44,37,33,34,29,18,90,74,36,30.01,29.78,0,-999,0,0.00
2013-2-23,44,40,36,43,39,34,97,95,90,29.78,29.48,0,-999,0,0.00
2013-2-24,63,50,37,49,38,28,98,69,32,29.72,29.45,0,-999,0,0.00
2013-2-25,44,38,34,30,21,16,78,51,39,29.87,29.72,0,-999,0,0.00
2013-2-26,58,46,36,57,40,20,98,83,50,29.78,29.22,0,-999,0,0.00
2013-2-27,61,50,42,45,39,32,97,69,37,29.48,29.31,0,-999,0,0.00
2013-2-28,51,42,33,36,30,23,90,64,37,29.51,29.36,0,-999,0,0.00
2013-3-1,52,40,30,31,26,22,82,57,37,29.57,29.48,0,-999,0,0.00
2013-3-2,52,39,28,31,22,16,80,53,37,29.60,29.48,0,-999,0,0.00
2013-3-3,50,37,27,24,17,13,61,45,33,29.63,29.51,0,-999,0,0.00
2013-3-4,50,38,26,19,15,11,55,41,28,29.78,29.63,0,-999,0,0.00
2013-3-5,50,43,35,43,32,17,94,68,38,29.75,29.25,0,-999,0,0.00
2013-3-6,48,43,38,47,30,22,97,63,42,29.69,29.19,0,-999,0,0.00
2013-3-7,54,43,32,29,25,20,74,51,37,29.87,29.66,0,-999,0,0.00
2013-3-8,56,44,29,27,22,20,74,45,28,29.93,29.78,0,-999,0,0.00
2013-3-9,64,46,30,32,25,20,72,45,25,30.01,29.90,0,-999,0,0.00
2013-3-10,68,50,32,37,27,21,79,46,22,29.99,29.87,0,-999,0,0.00
2013-3-11,70,56,39,51,40,23,77,56,38,29.90,29.63,0,-999,0,0.00
2013-3-12,72,62,51,62,52,29,96,71,40,29.63,29.45,0,-999,0,0.00
2013-3-13,61,49,36,34,27,21,75,45,27,29.75,29.60,0,-999,0,0.00
2013-3-14,54,48,36,23,20,16,45,32,27,29.84,29.75,0,-999,0,0.00
2013-3-15,64,47,29,32,24,16,68,43,28,29.84,29.57,0,-999,0,0.00
2013-3-16,78,63,51,45,39,30,55,43,30,29.57,29.36,0,-999,0,0.00
2013-3-17,63,53,42,52,42,35,90,68,49,29.84,29.51,0,-999,0,0.00
2013-3-18,45,41,38,41,38,36,97,89,83,29.87,29.54,0,-999,0,0.00
2013-3-19,68,53,41,48,35,18,98,61,24,29.69,29.48,0,-999,0,0.00
2013-3-20,57,48,40,22,17,11,47,30,25,29.78,29.45,0,-999,0,0.00
2013-3-21,51,41,32,26,17,8,62,39,28,29.63,29.39,0,-999,0,0.00
2013-3-22,53,39,25,21,14,8,52,37,26,29.75,29.60,0,-999,0,0.00
2013-3-23,55,46,38,27,24,20,59,42,30,29.72,29.57,0,-999,0,0.00
2013-3-24,41,39,35,38,33,25,93,80,59,29.60,29.25,0,-999,0,0.00
2013-3-25,51,42,37,38,29,19,90,64,38,29.48,29.22,0,-999,0,0.00
2013-3-26,54,43,34,28,23,20,62,46,36,29.75,29.48,0,-999,0,0.00
2013-3-27,56,44,33,26,22,17,63,43,29,29.87,29.75,0,-999,0,0.00
2013-3-28,58,45,32,27,22,18,62,41,27,29.96,29.81,0,-999,0,0.00
2013-3-29,62,46,30,31,24,19,71,44,26,29.99,29.84,0,-999,0,0.00
2013-3-30,69,54,40,41,32,27,67,45,25,29.93,29.75,0,-999,0,0.00
2013-3-31,68,58,49,58,49,39,96,75,56,29.78,29.51,0,-999,0,0.00
2013-4-1,73,62,54,56,46,35,97,63,29,29.66,29.51,0,-999,0,0.00
2013-4-2,62,51,38,35,27,22,64,41,26,29.81,29.66,0,-999,0,0.00
2013-4-3,62,51,42,29,24,19,55,35,24,29.96,29.81,0,-999,0,0.00
2013-4-4,49,43,40,38,29,20,92,61,39,30.01,29.57,0,-999,0,0.00
2013-4-5,63,49,40,47,41,38,94,78,48,29.69,29.51,0,-999,0,0.00
2013-4-6,67,53,39,40,32,24,90,51,25,29.96,29.69,0,-999,0,0.00
2013-4-7,73,57,37,45,36,29,75,47,29,29.96,29.78,0,-999,0,0.00
2013-4-8,79,67,54,56,49,44,88,56,33,29.87,29.75,0,-999,0,0.00
2013-4-9,86,72,59,59,53,49,90,55,30,29.90,29.78,0,-999,0,0.00
2013-4-10,89,75,63,60,55,51,82,53,30,29.81,29.66,0,-999,0,0.00
2013-4-11,83,72,63,65,58,53,88,62,38,29.72,29.51,0,-999,0,0.00
2013-4-12,81,72,64,69,61,49,94,70,40,29.51,29.36,0,-999,0,0.00
2013-4-13,76,65,53,49,39,35,58,40,25,29.69,29.48,0,-999,0,0.00
2013-4-14,83,65,46,51,41,35,83,47,20,29.81,29.69,0,-999,0,0.00
2013-4-15,71,66,60,56,52,46,81,62,49,29.90,29.72,0,-999,0,0.00
2013-4-16,78,65,57,61,56,53,91,72,46,29.99,29.90,0,-999,0,0.00
2013-4-17,83,70,59,62,59,56,93,69,44,29.93,29.84,0,-999,0,0.00
2013-4-18,81,71,61,62,56,52,87,62,40,29.90,29.75,0,-999,0,0.00
2013-4-19,83,72,66,65,63,56,95,75,47,29.75,29.45,0,-999,0,0.00
2013-4-20,66,57,48,64,40,32,94,57,33,29.96,29.54,0,-999,0,0.00
2013-4-21,64,53,42,39,36,32,84,56,35,30.13,29.93,0,-999,0,0.00
2013-4-22,64,52,40,43,35,26,74,54,34,30.13,29.93,0,-999,0,0.00
2013-4-23,67,56,48,48,45,42,85,68,44,29.93,29.81,0,-999,0,0.00
2013-4-24,78,63,49,54,50,45,94,65,39,29.84,29.66,0,-999,0,0.00
2013-4-25,72,62,52,54,43,36,75,51,33,29.96,29.69,0,-999,0,0.00
2013-4-26,74,60,51,50,41,33,87,55,24,30.07,29.93,0,-999,0,0.00
2013-4-27,76,63,53,50,42,38,69,48,28,30.04,29.93,0,-999,0,0.00
2013-4-28,62,59,56,54,48,39,92,68,49,29.96,29.78,0,-999,0,0.00
2013-4-29,72,63,56,63,59,54,97,87,66,29.78,29.66,0,-999,0,0.00
2013-4-30,67,62,57,60,58,53,95,87,73,29.87,29.69,0,-999,0,0.00
2013-5-1,62,59,57,58,56,54,92,89,81,29.99,29.84,0,-999,0,0.00
2013-5-2,64,60,56,56,55,51,91,84,74,30.01,29.93,0,-999,0,0.00
2013-5-3,70,59,50,55,47,38,93,68,40,29.96,29.84,0,-999,0,0.00
2013-5-4,67,57,50,49,45,39,80,66,49,29.90,29.75,0,-999,0,0.00
2013-5-5,60,56,51,54,49,44,84,78,68,29.78,29.66,0,-999,0,0.00
2013-5-6,67,61,57,64,58,53,96,93,83,29.69,29.51,0,-999,0,0.00
2013-5-7,71,60,51,60,51,44,98,74,40,29.63,29.54,0,-999,0,0.00
2013-5-8,72,62,54,58,54,49,94,77,51,29.69,29.60,0,-999,0,0.00
2013-5-9,80,66,56,61,56,52,97,72,41,29.78,29.66,0,-999,0,0.00
2013-5-10,87,72,57,60,56,52,91,61,33,29.78,29.66,0,-999,0,0.00
2013-5-11,84,73,68,63,59,55,79,62,41,29.69,29.51,0,-999,0,0.00
2013-5-12,76,67,57,61,49,33,83,54,32,29.75,29.51,0,-999,0,0.00
2013-5-13,69,58,47,39,35,31,68,44,26,29.84,29.72,0,-999,0,0.00
2013-5-14,72,58,41,41,37,32,81,49,28,29.90,29.75,0,-999,0,0.00
2013-5-15,88,71,57,58,50,37,68,48,32,29.78,29.63,0,-999,0,0.00
2013-5-16,86,76,67,61,57,52,72,54,33,29.69,29.60,0,-999,0,0.00
2013-5-17,88,75,63,64,59,54,87,61,34,29.81,29.69,0,-999,0,0.00
2013-5-18,78,70,64,68,63,59,91,78,56,29.87,29.78,0,-999,0,0.00
2013-5-19,79,70,66,70,65,62,96,85,60,29.87,29.78,0,-999,0,0.00
2013-5-20,75,70,67,71,68,64,96,92,80,29.84,29.75,0,-999,0,0.00
2013-5-21,85,74,69,71,68,65,94,82,58,29.78,29.69,0,-999,0,0.00
2013-5-22,86,75,68,68,65,61,91,73,50,29.75,29.66,0,-999,0,0.00
2013-5-23,83,74,70,68,66,62,88,76,54,29.66,29.54,0,-999,0,0.00
2013-5-24,74,66,54,66,51,37,91,62,34,29.87,29.51,0,-999,0,0.00
2013-5-25,74,59,44,45,40,36,82,52,27,29.93,29.84,0,-999,0,0.00
2013-5-26,74,61,49,48,44,38,81,57,32,29.96,29.87,0,-999,0,0.00
2013-5-27,82,67,51,54,48,45,87,56,30,29.96,29.87,0,-999,0,0.00
2013-5-28,85,74,64,63,59,50,83,61,44,29.96,29.87,0,-999,0,0.00
2013-5-29,87,75,65,63,60,56,86,60,40,29.99,29.90,0,-999,0,0.00
2013-5-30,88,76,64,65,60,55,87,61,34,30.01,29.93,0,-999,0,0.00
2013-5-31,88,78,67,67,63,59,88,63,39,29.99,29.87,0,-999,0,0.00
2013-6-1,86,80,75,63,59,57,63,49,38,29.81,29.75,0,-999,0,0.00
2013-6-2,87,78,69,66,63,59,87,63,41,29.78,29.63,0,-999,0,0.00
2013-6-3,80,73,67,74,68,61,94,85,66,29.69,29.57,0,-999,0,0.00
2013-6-4,79,70,65,67,63,59,96,79,55,29.81,29.63,0,-999,0,0.00
2013-6-5,82,72,65,62,57,51,86,60,36,29.84,29.75,0,-999,0,0.00
2013-6-6,77,71,67,71,64,53,94,79,50,29.75,29.57,0,-999,0,0.00
2013-6-7,74,70,69,73,69,68,97,96,94,29.57,29.25,0,-999,0,0.00
2013-6-8,83,73,68,71,68,66,97,85,60,29.81,29.51,0,-999,0,0.00
2013-6-9,87,76,67,72,68,64,96,78,52,29.87,29.78,0,-999,0,0.00
2013-6-10,83,75,72,77,71,67,93,87,69,29.81,29.63,0,-999,0,0.00
2013-6-11,86,76,70,68,65,60,91,70,46,29.69,29.63,0,-999,0,0.00
2013-6-12,89,78,66,70,67,62,92,70,48,29.69,29.57,0,-999,0,0.00
2013-6-13,96,80,68,74,68,52,88,70,32,29.57,29.36,0,-999,0,0.00
2013-6-14,81,71,61,66,57,52,89,65,41,29.72,29.45,0,-999,0,0.00
2013-6-15,81,66,59,62,57,55,91,74,41,29.81,29.72,0,-999,0,0.00
2013-6-16,88,76,66,65,59,50,67,55,43,29.84,29.75,0,-999,0,0.00
2013-6-17,86,77,71,70,65,61,77,66,52,29.75,29.66,0,-999,0,0.00
2013-6-18,84,75,70,71,68,66,92,80,59,29.69,29.51,0,-999,0,0.00
2013-6-19,81,72,66,68,65,62,95,78,57,29.81,29.57,0,-999,0,0.00
2013-6-20,84,73,65,64,60,53,90,66,41,29.96,29.81,0,-999,0,0.00
2013-6-21,84,72,59,61,55,50,82,57,34,29.96,29.90,0,-999,0,0.00
2013-6-22,82,74,70,69,66,61,86,77,65,29.93,29.84,0,-999,0,0.00
2013-6-23,86,76,69,72,68,66,93,78,54,29.93,29.84,0,-999,0,0.00
2013-6-24,87,78,72,72,70,67,92,77,56,29.93,29.81,0,-999,0,0.00
2013-6-25,89,76,70,77,68,65,90,77,56,29.84,29.75,0,-999,0,0.00
2013-6-26,90,77,69,74,68,61,93,77,49,29.75,29.63,0,-999,0,0.00
2013-6-27,88,77,68,74,70,66,95,81,57,29.63,29.48,0,-999,0,0.00
2013-6-28,91,79,71,73,69,62,91,75,46,29.48,29.36,0,-999,0,0.00
2013-6-29,84,76,69,73,70,67,95,83,63,29.45,29.34,0,-999,0,0.00
2013-6-30,87,76,71,74,70,64,94,82,59,29.60,29.42,0,-999,0,0.00
2013-7-1,80,74,70,74,71,68,96,88,77,29.72,29.57,0,-999,0,0.00
2013-7-2,76,74,71,72,71,69,96,92,86,29.90,29.69,0,-999,0,0.00
2013-7-3,87,77,73,76,72,67,96,85,62,29.99,29.84,0,-999,0,0.00
2013-7-4,89,80,74,73,70,62,92,73,44,30.01,29.93,0,-999,0,0.00
2013-7-5,91,81,73,73,70,66,90,71,46,30.04,29.93,0,-999,0,0.00
2013-7-6,87,79,73,73,70,65,89,74,58,30.01,29.87,0,-999,0,0.00
2013-7-7,89,80,71,72,69,65,89,72,53,29.90,29.81,0,-999,0,0.00
2013-7-8,89,79,73,73,70,65,88,73,50,29.90,29.81,0,-999,0,0.00
2013-7-9,89,77,73,76,70,63,92,80,54,29.90,29.81,0,-999,0,0.00
2013-7-10,88,78,73,75,71,68,91,80,58,29.81,29.69,0,-999,0,0.00
2013-7-11,83,75,72,74,71,70,94,88,69,29.69,29.60,0,-999,0,0.00
2013-7-12,76,73,71,72,70,68,96,92,82,29.75,29.57,0,-999,0,0.00
2013-7-13,77,73,71,75,71,68,95,93,90,29.90,29.72,0,-999,0,0.00
2013-7-14,89,78,70,75,70,68,96,80,52,30.01,29.87,0,-999,0,0.00
2013-7-15,89,78,70,74,70,67,95,78,51,30.04,29.96,0,-999,0,0.00
2013-7-16,93,80,69,73,69,63,94,72,45,29.99,29.90,0,-999,0,0.00
2013-7-17,93,82,75,77,71,67,92,71,47,29.96,29.84,0,-999,0,0.00
2013-7-18,92,82,75,76,72,68,90,74,46,29.87,29.78,0,-999,0,0.00
2013-7-19,92,82,76,75,71,66,90,71,51,29.84,29.72,0,-999,0,0.00
2013-7-20,90,80,75,73,71,68,90,76,52,29.75,29.66,0,-999,0,0.00
2013-7-21,88,78,73,74,71,68,89,78,56,29.72,29.66,0,-999,0,0.00
2013-7-22,87,78,72,73,70,68,93,78,56,29.69,29.57,0,-999,0,0.00
2013-7-23,90,81,75,71,69,66,86,69,47,29.57,29.48,0,-999,0,0.00
2013-7-24,92,81,71,71,67,61,90,65,39,29.57,29.45,0,-999,0,0.00
2013-7-25,78,73,69,70,67,64,90,80,67,29.75,29.54,0,-999,0,0.00
2013-7-26,87,74,63,65,61,57,93,68,39,29.84,29.72,0,-999,0,0.00
2013-7-27,89,75,68,70,65,60,91,74,40,29.78,29.66,0,-999,0,0.00
2013-7-28,88,77,70,72,68,63,94,75,46,29.72,29.63,0,-999,0,0.00
2013-7-29,85,76,70,70,66,60,93,73,47,29.87,29.69,0,-999,0,0.00
2013-7-30,86,74,64,65,62,59,88,67,44,29.93,29.84,0,-999,0,0.00
2013-7-31,83,77,71,72,68,65,90,74,59,29.87,29.72,0,-999,0,0.00
2013-8-1,84,75,70,72,69,66,94,84,61,29.75,29.60,0,-999,0,0.00
2013-8-2,87,76,68,71,67,65,95,76,50,29.75,29.63,0,-999,0,0.00
2013-8-3,89,79,72,74,71,65,92,78,46,29.75,29.66,0,-999,0,0.00
2013-8-4,83,75,68,72,66,55,95,75,46,29.75,29.60,0,-999,0,0.00
2013-8-5,84,74,66,65,60,54,91,66,41,29.81,29.72,0,-999,0,0.00
2013-8-6,83,75,68,69,63,59,90,68,49,29.81,29.69,0,-999,0,0.00
2013-8-7,87,77,69,68,65,61,86,68,45,29.81,29.75,0,-999,0,0.00
2013-8-8,89,80,72,71,67,64,88,67,46,29.81,29.72,0,-999,0,0.00
2013-8-9,91,82,75,73,70,67,87,69,47,29.78,29.72,0,-999,0,0.00
2013-8-10,95,81,74,75,71,65,89,74,44,29.84,29.75,0,-999,0,0.00
2013-8-11,93,81,72,74,70,67,93,73,45,29.84,29.75,0,-999,0,0.00
2013-8-12,93,82,74,74,70,64,91,69,39,29.78,29.66,0,-999,0,0.00
2013-8-13,89,78,71,75,71,68,93,80,59,29.69,29.54,0,-999,0,0.00
2013-8-14,76,72,64,71,63,56,89,74,63,29.81,29.54,0,-999,0,0.00
2013-8-15,79,67,60,60,55,51,85,68,42,29.87,29.78,0,-999,0,0.00
2013-8-16,69,65,60,60,58,56,91,77,64,29.87,29.78,0,-999,0,0.00
2013-8-17,71,67,64,69,64,59,95,89,80,29.87,29.81,0,-999,0,0.00
2013-8-18,82,73,69,70,67,63,95,83,63,29.90,29.81,0,-999,0,0.00
2013-8-19,73,70,67,70,67,63,95,91,82,29.90,29.81,0,-999,0,0.00
2013-8-20,82,74,69,72,70,68,96,86,67,29.90,29.81,0,-999,0,0.00
2013-8-21,90,76,71,74,70,65,94,82,51,29.93,29.84,0,-999,0,0.00
2013-8-22,89,78,70,74,68,61,95,74,42,29.87,29.72,0,-999,0,0.00
2013-8-23,88,77,69,72,68,64,91,75,52,29.78,29.66,0,-999,0,0.00
2013-8-24,84,73,66,64,58,50,83,62,34,30.01,29.78,0,-999,0,0.00
2013-8-25,81,70,61,63,56,49,90,64,37,30.10,29.99,0,-999,0,0.00
2013-8-26,86,69,56,60,53,48,90,61,31,30.01,29.84,0,-999,0,0.00
2013-8-27,89,75,64,67,61,54,77,62,41,29.84,29.69,0,-999,0,0.00
2013-8-28,82,77,71,72,69,67,90,78,66,29.72,29.63,0,-999,0,0.00
2013-8-29,87,79,73,71,69,65,83,71,51,29.78,29.60,0,-999,0,0.00
2013-8-30,90,77,67,67,63,56,91,65,33,29.81,29.72,0,-999,0,0.00
2013-8-31,91,78,68,70,65,61,91,66,40,29.75,29.63,0,-999,0,0.00
2013-9-1,91,79,71,73,69,64,91,73,42,29.69,29.54,0,-999,0,0.00
2013-9-2,88,78,70,73,70,68,94,79,55,29.66,29.57,0,-999,0,0.00
2013-9-3,88,79,73,74,70,65,91,75,55,29.72,29.57,0,-999,0,0.00
2013-9-4,86,76,68,69,66,62,89,72,52,29.84,29.72,0,-999,0,0.00
2013-9-5,89,76,67,68,61,52,92,65,31,29.87,29.78,0,-999,0,0.00
2013-9-6,85,72,64,62,57,52,82,62,40,29.93,29.84,0,-999,0,0.00
2013-9-7,85,72,61,61,58,53,89,65,37,29.90,29.72,0,-999,0,0.00
2013-9-8,89,75,65,63,59,52,85,61,31,29.72,29.63,0,-999,0,0.00
2013-9-9,90,76,66,67,62,59,90,65,37,29.87,29.69,0,-999,0,0.00
2013-9-10,93,79,68,70,64,58,91,63,33,29.96,29.84,0,-999,0,0.00
2013-9-11,92,78,68,67,63,58,87,62,38,29.93,29.78,0,-999,0,0.00
2013-9-12,92,79,71,68,65,63,81,64,40,29.78,29.51,0,-999,0,0.00
2013-9-13,88,76,69,67,59,48,85,59,34,29.60,29.48,0,-999,0,0.00
2013-9-14,79,68,60,50,46,43,68,46,32,29.87,29.60,0,-999,0,0.00
2013-9-15,84,68,56,58,52,48,83,60,34,29.93,29.84,0,-999,0,0.00
2013-9-16,84,74,67,71,62,53,93,68,42,29.90,29.78,0,-999,0,0.00
2013-9-17,79,68,62,56,50,44,73,54,32,30.01,29.90,0,-999,0,0.00
2013-9-18,75,62,52,51,47,43,83,60,34,29.99,29.87,0,-999,0,0.00
2013-9-19,75,70,66,58,56,53,74,62,48,29.81,29.78,0,-999,0,0.00
2013-9-20,68,67,64,65,61,56,91,83,68,29.81,29.69,0,-999,0,0.00
2013-9-21,78,70,66,69,66,63,94,87,70,29.69,29.45,0,-999,0,0.00
2013-9-22,77,68,60,66,59,52,95,76,45,29.60,29.42,0,-999,0,0.00
2013-9-23,73,62,55,55,51,46,87,68,42,29.78,29.60,0,-999,0,0.00
2013-9-24,76,63,54,56,53,50,91,72,44,29.81,29.66,0,-999,0,0.00
2013-9-25,75,63,54,60,55,51,93,77,51,29.66,29.57,0,-999,0,0.00
2013-9-26,77,66,59,60,55,48,91,70,40,29.72,29.57,0,-999,0,0.00
2013-9-27,74,63,55,60,53,51,92,73,47,29.87,29.72,0,-999,0,0.00
2013-9-28,72,62,52,56,51,48,92,71,47,29.93,29.84,0,-999,0,0.00
2013-9-29,74,62,52,58,50,47,92,70,41,29.87,29.72,0,-999,0,0.00
2013-9-30,76,62,52,59,52,48,92,72,41,29.78,29.72,0,-999,0,0.00
2013-10-1,81,65,52,60,54,49,93,70,39,29.81,29.72,0,-999,0,0.00
2013-10-2,84,69,58,62,56,52,92,69,37,29.84,29.78,0,-999,0,0.00
2013-10-3,86,70,60,64,58,53,92,68,36,29.84,29.78,0,-999,0,0.00
2013-10-4,87,73,63,65,60,56,89,66,39,29.84,29.78,0,-999,0,0.00
2013-10-5,90,74,62,67,61,57,91,67,36,29.84,29.78,0,-999,0,0.00
2013-10-6,84,74,67,69,65,61,92,75,48,29.81,29.69,0,-999,0,0.00
2013-10-7,73,71,65,71,68,62,94,90,83,29.75,29.60,0,-999,0,0.00
2013-10-8,65,61,59,61,48,43,88,63,54,29.90,29.72,0,-999,0,0.00
2013-10-9,62,59,55,54,50,47,92,74,63,29.90,29.78,0,-999,0,0.00
2013-10-10,61,57,54,59,55,52,95,93,88,29.78,29.63,0,-999,0,0.00
2013-10-11,67,62,59,62,59,58,95,91,80,29.69,29.60,0,-999,0,0.00
2013-10-12,67,64,61,64,61,59,93,91,86,29.78,29.66,0,-999,0,0.00
2013-10-13,67,64,62,63,62,60,95,91,85,29.90,29.78,0,-999,0,0.00
2013-10-14,65,62,58,62,60,55,96,92,85,29.93,29.87,0,-999,0,0.00
2013-10-15,71,62,55,59,56,53,95,82,58,29.87,29.75,0,-999,0,0.00
2013-10-16,68,65,62,62,60,58,93,86,75,29.78,29.66,0,-999,0,0.00
2013-10-17,75,67,61,62,60,58,94,80,59,29.66,29.57,0,-999,0,0.00
2013-10-18,67,63,58,62,52,43,92,68,44,29.75,29.57,0,-999,0,0.00
2013-10-19,69,64,60,62,58,52,90,82,73,29.69,29.54,0,-999,0,0.00
2013-10-20,66,56,46,58,45,37,92,68,37,29.81,29.60,0,-999,0,0.00
2013-10-21,68,53,40,52,42,36,93,69,35,29.84,29.69,0,-999,0,0.00
2013-10-22,63,58,52,56,52,46,90,80,74,29.69,29.51,0,-999,0,0.00
2013-10-23,68,60,50,58,46,29,94,66,33,29.69,29.39,0,-999,0,0.00
2013-10-24,61,48,37,35,31,28,73,52,35,29.84,29.69,0,-999,0,0.00
2013-10-25,58,48,37,35,28,23,65,47,32,30.01,29.84,0,-999,0,0.00
2013-10-26,60,48,32,32,28,24,76,49,31,30.01,29.75,0,-999,0,0.00
2013-10-27,69,54,41,40,36,30,75,53,33,29.81,29.72,0,-999,0,0.00
2013-10-28,67,55,45,51,46,38,86,74,52,29.93,29.81,0,-999,0,0.00
2013-10-29,73,59,51,56,50,47,93,75,44,29.99,29.90,0,-999,0,0.00
2013-10-30,73,62,53,59,53,49,95,75,46,29.99,29.84,0,-999,0,0.00
2013-10-31,74,66,57,60,54,48,91,67,45,29.90,29.66,0,-999,0,0.00
2013-11-1,73,68,62,65,62,58,95,83,65,29.66,29.42,0,-999,0,0.00
2013-11-2,71,61,52,58,50,40,95,70,38,29.63,29.42,0,-999,0,0.00
2013-11-3,64,51,42,40,36,33,79,59,35,30.04,29.63,0,-999,0,0.00
2013-11-4,58,46,36,36,31,26,80,58,36,30.19,30.01,0,-999,0,0.00
2013-11-5,58,49,39,46,38,28,77,66,52,30.22,30.07,0,-999,0,0.00
2013-11-6,72,57,46,53,48,42,87,73,43,30.07,29.81,0,-999,0,0.00
2013-11-7,68,60,46,62,52,29,95,75,41,29.81,29.63,0,-999,0,0.00
2013-11-8,60,46,34,32,27,22,70,48,30,29.99,29.78,0,-999,0,0.00
2013-11-9,61,45,31,35,28,25,84,55,30,30.07,29.87,0,-999,0,0.00
2013-11-10,73,53,38,40,33,27,77,48,25,29.90,29.75,0,-999,0,0.00
2013-11-11,61,46,33,31,26,22,71,47,29,30.04,29.81,0,-999,0,0.00
2013-11-12,63,44,36,36,29,15,76,58,34,30.07,29.69,0,-999,0,0.00
2013-11-13,47,35,27,21,15,12,61,44,31,30.19,30.04,0,-999,0,0.00
2013-11-14,58,39,25,25,20,15,73,48,26,30.13,29.99,0,-999,0,0.00
2013-11-15,60,46,30,43,31,18,79,57,36,30.01,29.87,0,-999,0,0.00
2013-11-16,71,57,49,56,49,43,89,77,52,29.96,29.87,0,-999,0,0.00
2013-11-17,71,62,53,66,56,50,96,82,55,29.90,29.60,0,-999,0,0.00
2013-11-18,76,66,55,66,51,28,94,62,35,29.66,29.51,0,-999,0,0.00
2013-11-19,59,50,43,29,25,22,46,38,30,29.99,29.66,0,-999,0,0.00
2013-11-20,56,46,38,32,26,21,64,47,36,30.10,29.96,0,-999,0,0.00
2013-11-21,61,50,42,43,38,31,74,62,47,30.16,30.04,0,-999,0,0.00
2013-11-22,70,59,47,58,50,41,88,72,58,30.04,29.78,0,-999,0,0.00
2013-11-23,62,56,44,59,43,20,94,64,38,29.84,29.72,0,-999,0,0.00
2013-11-24,44,34,25,20,9,2,43,35,29,30.19,29.84,0,-999,0,0.00
2013-11-25,45,32,20,15,10,6,64,41,28,30.25,30.04,0,-999,0,0.00
2013-11-26,66,47,37,65,34,12,97,65,35,30.04,29.28,0,-999,0,0.00
2013-11-27,54,41,31,49,35,14,94,80,50,29.84,29.19,0,-999,0,0.00
2013-11-28,46,33,24,22,17,12,68,51,36,30.13,29.81,0,-999,0,0.00
2013-11-29,53,36,25,28,22,19,82,58,34,30.28,30.10,0,-999,0,0.00
2013-11-30,49,37,27,29,24,18,77,60,42,30.31,30.01,0,-999,0,0.00
2013-12-1,58,42,28,36,29,23,86,64,35,30.01,29.69,0,-999,0,0.00
2013-12-2,61,46,38,43,36,33,85,70,44,29.69,29.48,0,-999,0,0.00
2013-12-3,58,47,33,44,37,30,92,71,48,29.66,29.54,0,-999,0,0.00
2013-12-4,64,57,52,54,50,42,92,77,62,29.78,29.66,0,-999,0,0.00
2013-12-5,66,61,53,63,58,50,98,91,81,29.81,29.72,0,-999,0,0.00
2013-12-6,78,70,65,63,60,55,90,70,46,29.78,29.69,0,-999,0,0.00
2013-12-7,69,50,43,62,42,27,90,73,53,30.10,29.72,0,-999,0,0.00
2013-12-8,43,37,34,32,29,23,90,76,49,30.10,29.96,0,-999,0,0.00
2013-12-9,46,40,35,46,39,32,97,95,90,29.96,29.72,0,-999,0,0.00
2013-12-10,48,44,30,47,40,24,97,88,63,29.99,29.60,0,-999,0,0.00
2013-12-11,50,36,25,30,24,21,90,65,37,30.10,29.93,0,-999,0,0.00
2013-12-12,48,34,27,25,19,14,81,56,31,30.07,29.93,0,-999,0,0.00
2013-12-13,52,36,23,27,20,16,78,55,29,30.07,29.93,0,-999,0,0.00
2013-12-14,48,42,38,40,32,22,91,71,40,29.96,29.45,0,-999,0,0.00
2013-12-15,55,44,34,45,34,23,95,72,43,29.75,29.39,0,-999,0,0.00
2013-12-16,55,41,29,34,28,23,85,62,37,29.84,29.72,0,-999,0,0.00
2013-12-17,60,48,35,34,31,28,83,53,35,29.81,29.54,0,-999,0,0.00
2013-12-18,51,41,30,31,19,16,61,43,29,29.96,29.69,0,-999,0,0.00
2013-12-19,61,45,30,29,22,18,65,43,25,30.01,29.87,0,-999,0,0.00
2013-12-20,66,54,43,49,40,25,78,58,39,29.93,29.78,0,-999,0,0.00
2013-12-21,73,61,50,64,53,43,86,74,53,29.84,29.75,0,-999,0,0.00
2013-12-22,78,71,65,64,61,55,93,74,50,29.84,29.72,0,-999,0,0.00
2013-12-23,68,61,47,66,59,37,97,92,67,29.84,29.69,0,-999,0,0.00
2013-12-24,48,42,31,38,26,10,74,52,39,30.10,29.81,0,-999,0,0.00
2013-12-25,42,31,25,15,10,8,56,42,31,30.19,30.04,0,-999,0,0.00
2013-12-26,50,36,26,31,24,13,79,62,40,30.04,29.90,0,-999,0,0.00
2013-12-27,54,36,26,30,22,19,84,60,31,30.10,29.99,0,-999,0,0.00
2013-12-28,59,41,26,34,26,19,83,57,27,30.07,29.84,0,-999,0,0.00
2013-12-29,63,49,44,62,46,32,98,87,58,29.84,29.36,0,-999,0,0.00
2013-12-30,54,45,35,48,38,33,98,79,55,29.81,29.60,0,-999,0,0.00
2013-12-31,51,42,32,35,28,21,78,57,33,30.01,29.78,0,-999,0,0.00
2014-1-1,55,40,31,30,25,20,81,58,30,30.07,29.81,0,-999,0,0.00
2014-1-2,49,44,38,44,36,28,91,74,57,29.81,29.28,0,-999,0,0.00